Regional Weather Roundup
Issued by NWS

Home | Current Version | Previous Version | Graphics & Text | Print | Product List | Glossary On
Versions: 1 2 3 4 5 6 7 8 9 10 11 12 13 14 15 16 17 18 19 20 21 22 23 24 25 26 27
000
ASUS45 KCYS 190010
RWRWY

WYOMING REGIONAL WEATHER ROUNDUP
NATIONAL WEATHER SERVICE CHEYENNE WY
500 PM MST SAT FEB 18 2017

NOTE:  "FAIR" INDICATES FEW OR NO CLOUDS BELOW 12,000 FEET
WITH NO SIGNIFICANT WEATHER AND/OR OBSTRUCTIONS TO VISIBILITY.

WYZ001-190100-
YELLOWSTONE NATIONAL PARK

CITY           SKY/WX    TMP DP  RH WIND       PRES   REMARKS
LK YELLOWSTONE   N/A     32  31  96 VRB3      29.65S
6HR MIN TEMP:  31; 6HR MAX TEMP:  35; 6HR PCP:  0.04;

W YELLOWSTONE  NOT AVBL

$$
WYZ002>013-054>058-071-098>099-190100-
NORTHERN WYOMING

CITY           SKY/WX    TMP DP  RH WIND       PRES   REMARKS
JACKSON        MOCLDY    36  34  93 SW12      29.64S WCI  27
CODY           MOCLDY    47  32  56 S5        29.57S
GREYBULL       FAIR      44  34  67 CALM      29.53F
6HR MIN TEMP:  41; 6HR MAX TEMP:  52;

WORLAND        FAIR      46  35  65 S13       29.54S
6HR MIN TEMP:  37; 6HR MAX TEMP:  51;

SHERIDAN       FAIR      46  32  58 VRB5      29.54F
6HR MIN TEMP:  44; 6HR MAX TEMP:  54;

BUFFALO        FAIR      48  32  53 NW8       29.57R
6HR MIN TEMP:  48; 6HR MAX TEMP:  56;

GILLETTE       FAIR      56  32  40 SW15      29.57R
6HR MIN TEMP:  56; 6HR MAX TEMP:  62;

HULETT         FAIR      55  32  41 SW7       29.59S
NEWCASTLE      FAIR      57  30  35 W6        29.63S

$$
WYZ014>020-022>026-101>103-190100-
CENTRAL WYOMING

CITY           SKY/WX    TMP DP  RH WIND       PRES   REMARKS
BIG PINEY      CLOUDY    34  32  92 VRB5      29.70S WCI  30
6HR MIN TEMP:  28; 6HR MAX TEMP:  35; 6HR PCP: TRACE;

PINEDALE       CLOUDY    34  32  93 S5        29.71S WCI  30
DUBOIS         MOCLDY    37  28  70 NW10      29.62R WCI  30
LANDER         FAIR      42  32  67 N3        29.59S
6HR MIN TEMP:  40; 6HR MAX TEMP:  47;

RIVERTON       FAIR      42  33  70 S6        29.61R
6HR MIN TEMP:  37; 6HR MAX TEMP:  46;

CASPER         FAIR      50  30  46 SW24G45   29.66R
6HR MIN TEMP:  50; 6HR MAX TEMP:  57; 6HR PCP: TRACE;

DOUGLAS        CLOUDY    57  26  30 W13       29.64F
6HR MIN TEMP:  56; 6HR MAX TEMP:  62;


$$
WYZ021-027>030-104>119-190100-
SOUTHERN WYOMING

CITY           SKY/WX    TMP DP  RH WIND       PRES   REMARKS
EVANSTON       CLOUDY    37  29  72 E8        29.67S WCI  31
6HR MIN TEMP:  36; 6HR MAX TEMP:  40; 6HR PCP: TRACE;

KEMMERER         N/A     36  32  87 N8        29.69S WCI  29
FORT BRIDGER   CLOUDY    34  34 100 NE5       29.70F WCI  30
ROCK SPRINGS   CLOUDY    39  30  70 S16G24    29.68S WCI  30
6HR MIN TEMP:  39; 6HR MAX TEMP:  42;

DIXON            N/A     41  34  75 SW5       29.79S
RAWLINS        CLOUDY    41  32  70 SW12      29.74F
6HR MIN TEMP:  41; 6HR MAX TEMP:  49;

SARATOGA       MOCLDY    43  32  65 W12       29.75S
LARAMIE        FAIR      49  22  34 SE5       29.71R
6HR MIN TEMP:  49; 6HR MAX TEMP:  55;

CHEYENNE       FAIR      53  20  27 SE14      29.68S
6HR MIN TEMP:  53; 6HR MAX TEMP:  60;

TORRINGTON     FAIR      59  21  23 SE15      29.61S
6HR MIN TEMP:  57; 6HR MAX TEMP:  67;

PINE BLUFFS    FAIR      54  23  30 S7        29.67F

$$




USA.gov is the U.S. government's official web portal to all federal, state and local government web resources and services.